Year,Month,Day,Hour,Minute,Value (Times are PST for temperature in C)
2015,06,29,00,00,19.80
2015,06,29,00,01,19.80
2015,06,29,00,02,19.80
2015,06,29,00,03,19.70
2015,06,29,00,04,19.70
2015,06,29,00,05,19.70
2015,06,29,00,06,19.70
2015,06,29,00,07,19.70
2015,06,29,00,08,19.70
2015,06,29,00,09,19.70
2015,06,29,00,10,19.70
2015,06,29,00,11,19.70
2015,06,29,00,12,19.70
2015,06,29,00,13,19.70
2015,06,29,00,14,19.70
2015,06,29,00,15,19.70
2015,06,29,00,16,19.70
2015,06,29,00,17,19.70
2015,06,29,00,18,19.70
2015,06,29,00,19,19.70
2015,06,29,00,20,19.70
2015,06,29,00,21,19.70
2015,06,29,00,22,19.90
2015,06,29,00,23,20.10
2015,06,29,00,24,20.20
2015,06,29,00,25,20.30
2015,06,29,00,26,20.30
2015,06,29,00,27,20.30
2015,06,29,00,28,20.30
2015,06,29,00,29,20.40
2015,06,29,00,30,20.40
2015,06,29,00,31,20.50
2015,06,29,00,32,20.40
2015,06,29,00,33,20.40
2015,06,29,00,34,20.40
2015,06,29,00,35,20.40
2015,06,29,00,36,20.40
2015,06,29,00,37,20.40
2015,06,29,00,38,20.50
2015,06,29,00,39,20.60
2015,06,29,00,40,20.70
2015,06,29,00,41,20.90
2015,06,29,00,42,21.00
2015,06,29,00,43,21.20
2015,06,29,00,44,21.10
2015,06,29,00,45,21.10
2015,06,29,00,46,21.00
2015,06,29,00,47,21.00
2015,06,29,00,48,20.90
2015,06,29,00,49,20.90
2015,06,29,00,50,20.80
2015,06,29,00,51,20.80
2015,06,29,00,52,20.70
2015,06,29,00,53,20.60
2015,06,29,00,54,20.50
2015,06,29,00,55,20.40
2015,06,29,00,56,20.40
2015,06,29,00,57,20.40
2015,06,29,00,58,20.50
2015,06,29,00,59,20.50
2015,06,29,01,00,20.60
2015,06,29,01,01,20.60
2015,06,29,01,02,20.60
2015,06,29,01,03,20.50
2015,06,29,01,04,20.50
2015,06,29,01,05,20.50
2015,06,29,01,06,20.40
2015,06,29,01,07,20.40
2015,06,29,01,08,20.40
2015,06,29,01,09,20.30
2015,06,29,01,10,20.30
2015,06,29,01,11,20.30
2015,06,29,01,12,20.30
2015,06,29,01,13,20.30
2015,06,29,01,14,20.20
2015,06,29,01,15,20.20
2015,06,29,01,16,20.20
2015,06,29,01,17,20.20
2015,06,29,01,18,20.20
2015,06,29,01,19,20.20
2015,06,29,01,20,20.20
2015,06,29,01,21,20.20
2015,06,29,01,22,20.20
2015,06,29,01,23,20.20
2015,06,29,01,24,20.20
2015,06,29,01,25,20.20
2015,06,29,01,26,20.20
2015,06,29,01,27,20.20
2015,06,29,01,28,20.20
2015,06,29,01,29,20.20
2015,06,29,01,30,20.20
2015,06,29,01,31,20.20
2015,06,29,01,32,20.20
2015,06,29,01,33,20.20
2015,06,29,01,34,20.20
2015,06,29,01,35,20.20
2015,06,29,01,36,20.20
2015,06,29,01,37,20.10
2015,06,29,01,38,20.10
2015,06,29,01,39,20.10
2015,06,29,01,40,20.10
2015,06,29,01,41,20.10
2015,06,29,01,42,20.10
2015,06,29,01,43,20.10
2015,06,29,01,44,20.10
2015,06,29,01,45,20.10
2015,06,29,01,46,20.00
2015,06,29,01,47,20.00
2015,06,29,01,48,20.00
2015,06,29,01,49,19.90
2015,06,29,01,50,19.90
2015,06,29,01,51,19.90
2015,06,29,01,52,19.80
2015,06,29,01,53,19.80
2015,06,29,01,54,19.80
2015,06,29,01,55,19.70
2015,06,29,01,56,19.70
2015,06,29,01,57,19.70
2015,06,29,01,58,19.60
2015,06,29,01,59,19.60
2015,06,29,02,00,19.60
2015,06,29,02,01,19.60
2015,06,29,02,02,19.60
2015,06,29,02,03,19.60
2015,06,29,02,04,19.50
2015,06,29,02,05,19.50
2015,06,29,02,06,19.50
2015,06,29,02,07,19.40
2015,06,29,02,08,19.40
2015,06,29,02,09,19.40
2015,06,29,02,10,19.40
2015,06,29,02,11,19.30
2015,06,29,02,12,19.30
2015,06,29,02,13,19.30
2015,06,29,02,14,19.30
2015,06,29,02,15,19.30
2015,06,29,02,16,19.30
2015,06,29,02,17,19.30
2015,06,29,02,18,19.20
2015,06,29,02,19,19.20
2015,06,29,02,20,19.20
2015,06,29,02,21,19.20
2015,06,29,02,22,19.20
2015,06,29,02,23,19.20
2015,06,29,02,24,19.20
2015,06,29,02,25,19.10
2015,06,29,02,26,19.10
2015,06,29,02,27,19.10
2015,06,29,02,28,19.10
2015,06,29,02,29,19.10
2015,06,29,02,30,19.10
2015,06,29,02,31,19.10
2015,06,29,02,32,19.10
2015,06,29,02,33,19.00
2015,06,29,02,34,19.00
2015,06,29,02,35,19.00
2015,06,29,02,36,19.00
2015,06,29,02,37,19.00
2015,06,29,02,38,19.00
2015,06,29,02,39,19.00
2015,06,29,02,40,18.90
2015,06,29,02,41,18.90
2015,06,29,02,42,18.90
2015,06,29,02,43,18.90
2015,06,29,02,44,18.90
2015,06,29,02,45,18.90
2015,06,29,02,46,18.90
2015,06,29,02,47,18.80
2015,06,29,02,48,18.80
2015,06,29,02,49,18.80
2015,06,29,02,50,18.80
2015,06,29,02,51,18.80
2015,06,29,02,52,18.80
2015,06,29,02,53,18.80
2015,06,29,02,54,18.80
2015,06,29,02,55,18.70
2015,06,29,02,56,18.70
2015,06,29,02,57,18.70
2015,06,29,02,58,18.70
2015,06,29,02,59,18.70
2015,06,29,03,00,18.80
2015,06,29,03,01,18.80
2015,06,29,03,02,18.80
2015,06,29,03,03,18.80
2015,06,29,03,04,18.80
2015,06,29,03,05,18.80
2015,06,29,03,06,18.90
2015,06,29,03,07,18.80
2015,06,29,03,08,18.80
2015,06,29,03,09,18.80
2015,06,29,03,10,18.80
2015,06,29,03,11,18.80
2015,06,29,03,12,18.80
2015,06,29,03,13,18.80
2015,06,29,03,14,18.70
2015,06,29,03,15,18.70
2015,06,29,03,16,18.70
2015,06,29,03,17,18.70
2015,06,29,03,18,18.70
2015,06,29,03,19,18.70
2015,06,29,03,20,18.70
2015,06,29,03,21,18.70
2015,06,29,03,22,18.70
2015,06,29,03,23,18.80
2015,06,29,03,24,18.80
2015,06,29,03,25,18.80
2015,06,29,03,26,18.80
2015,06,29,03,27,18.80
2015,06,29,03,28,18.80
2015,06,29,03,29,18.80
2015,06,29,03,30,18.80
2015,06,29,03,31,18.80
2015,06,29,03,32,18.70
2015,06,29,03,33,18.70
2015,06,29,03,34,18.70
2015,06,29,03,35,18.70
2015,06,29,03,36,18.60
2015,06,29,03,37,18.60
2015,06,29,03,38,18.60
2015,06,29,03,39,18.60
2015,06,29,03,40,18.60
2015,06,29,03,41,18.60
2015,06,29,03,42,18.60
2015,06,29,03,43,18.60
2015,06,29,03,44,18.60
2015,06,29,03,45,18.70
2015,06,29,03,46,18.70
2015,06,29,03,47,18.60
2015,06,29,03,48,18.60
2015,06,29,03,49,18.60
2015,06,29,03,50,18.60
2015,06,29,03,51,18.60
2015,06,29,03,52,18.50
2015,06,29,03,53,18.50
2015,06,29,03,54,18.50
2015,06,29,03,55,18.50
2015,06,29,03,56,18.50
2015,06,29,03,57,18.50
2015,06,29,03,58,18.50
2015,06,29,03,59,18.50
2015,06,29,04,00,18.50
2015,06,29,04,01,18.60
2015,06,29,04,02,18.60
2015,06,29,04,03,18.60
2015,06,29,04,04,18.60
2015,06,29,04,05,18.60
2015,06,29,04,06,18.50
2015,06,29,04,07,18.50
2015,06,29,04,08,18.50
2015,06,29,04,09,18.40
2015,06,29,04,10,18.40
2015,06,29,04,11,18.40
2015,06,29,04,12,18.40
2015,06,29,04,13,18.40
2015,06,29,04,14,18.40
2015,06,29,04,15,18.30
2015,06,29,04,16,18.30
2015,06,29,04,17,18.30
2015,06,29,04,18,18.30
2015,06,29,04,19,18.30
2015,06,29,04,20,18.30
2015,06,29,04,21,18.30
2015,06,29,04,22,18.30
2015,06,29,04,23,18.30
2015,06,29,04,24,18.30
2015,06,29,04,25,18.30
2015,06,29,04,26,18.30
2015,06,29,04,27,18.30
2015,06,29,04,28,18.50
2015,06,29,04,29,18.70
2015,06,29,04,30,18.90
2015,06,29,04,31,19.00
2015,06,29,04,32,19.20
2015,06,29,04,33,19.30
2015,06,29,04,34,19.40
2015,06,29,04,35,19.50
2015,06,29,04,36,19.70
2015,06,29,04,37,19.80
2015,06,29,04,38,19.90
2015,06,29,04,39,20.00
2015,06,29,04,40,20.00
2015,06,29,04,41,20.10
2015,06,29,04,42,20.20
2015,06,29,04,43,20.20
2015,06,29,04,44,20.20
2015,06,29,04,45,20.20
2015,06,29,04,46,20.20
2015,06,29,04,47,20.20
2015,06,29,04,48,20.20
2015,06,29,04,49,20.20
2015,06,29,04,50,20.20
2015,06,29,04,51,20.20
2015,06,29,04,52,20.30
2015,06,29,04,53,20.30
2015,06,29,04,54,20.30
2015,06,29,04,55,20.30
2015,06,29,04,56,20.30
2015,06,29,04,57,20.30
2015,06,29,04,58,20.40
2015,06,29,04,59,20.40
2015,06,29,05,00,20.40
2015,06,29,05,01,20.40
2015,06,29,05,02,20.50
2015,06,29,05,03,20.50
2015,06,29,05,04,20.50
2015,06,29,05,05,20.60
2015,06,29,05,06,20.60
2015,06,29,05,07,20.60
2015,06,29,05,08,20.60
2015,06,29,05,09,20.60
2015,06,29,05,10,20.60
2015,06,29,05,11,20.60
2015,06,29,05,12,20.60
2015,06,29,05,13,20.60
2015,06,29,05,14,20.60
2015,06,29,05,15,20.60
2015,06,29,05,16,20.60
2015,06,29,05,17,20.50
2015,06,29,05,18,20.50
2015,06,29,05,19,20.50
2015,06,29,05,20,20.50
2015,06,29,05,21,20.40
2015,06,29,05,22,20.40
2015,06,29,05,23,20.30
2015,06,29,05,24,20.30
2015,06,29,05,25,20.20
2015,06,29,05,26,20.20
2015,06,29,05,27,20.10
2015,06,29,05,28,20.10
2015,06,29,05,29,20.10
2015,06,29,05,30,20.00
2015,06,29,05,31,20.00
2015,06,29,05,32,19.90
2015,06,29,05,33,19.90
2015,06,29,05,34,19.90
2015,06,29,05,35,19.80
2015,06,29,05,36,19.80
2015,06,29,05,37,19.80
2015,06,29,05,38,19.80
2015,06,29,05,39,19.70
2015,06,29,05,40,19.70
2015,06,29,05,41,19.60
2015,06,29,05,42,19.60
2015,06,29,05,43,19.50
2015,06,29,05,44,19.50
2015,06,29,05,45,19.40
2015,06,29,05,46,19.30
2015,06,29,05,47,19.30
2015,06,29,05,48,19.30
2015,06,29,05,49,19.20
2015,06,29,05,50,19.20
2015,06,29,05,51,19.10
2015,06,29,05,52,19.10
2015,06,29,05,53,19.10
2015,06,29,05,54,19.00
2015,06,29,05,55,19.00
2015,06,29,05,56,18.90
2015,06,29,05,57,18.90
2015,06,29,05,58,18.90
2015,06,29,05,59,18.80
2015,06,29,06,00,18.80
2015,06,29,06,01,18.70
2015,06,29,06,02,18.70
2015,06,29,06,03,18.70
2015,06,29,06,04,18.60
2015,06,29,06,05,18.60
2015,06,29,06,06,18.60
2015,06,29,06,07,18.50
2015,06,29,06,08,18.50
2015,06,29,06,09,18.40
2015,06,29,06,10,18.40
2015,06,29,06,11,18.40
2015,06,29,06,12,18.30
2015,06,29,06,13,18.30
2015,06,29,06,14,18.30
2015,06,29,06,15,18.30
2015,06,29,06,16,18.30
2015,06,29,06,17,18.30
2015,06,29,06,18,18.20
2015,06,29,06,19,18.20
2015,06,29,06,20,18.20
2015,06,29,06,21,18.20
2015,06,29,06,22,18.20
2015,06,29,06,23,18.20
2015,06,29,06,24,18.20
2015,06,29,06,25,18.20
2015,06,29,06,26,18.20
2015,06,29,06,27,18.10
2015,06,29,06,28,18.10
2015,06,29,06,29,18.10
2015,06,29,06,30,18.10
2015,06,29,06,31,18.10
2015,06,29,06,32,18.10
2015,06,29,06,33,18.10
2015,06,29,06,34,18.10
2015,06,29,06,35,18.00
2015,06,29,06,36,18.00
2015,06,29,06,37,18.00
2015,06,29,06,38,18.00
2015,06,29,06,39,17.90
2015,06,29,06,40,17.90
2015,06,29,06,41,17.90
2015,06,29,06,42,17.90
2015,06,29,06,43,17.90
2015,06,29,06,44,17.90
2015,06,29,06,45,17.90
2015,06,29,06,46,17.90
2015,06,29,06,47,17.90
2015,06,29,06,48,17.90
2015,06,29,06,49,17.90
2015,06,29,06,50,18.00
2015,06,29,06,51,18.00
2015,06,29,06,52,18.00
2015,06,29,06,53,18.10
2015,06,29,06,54,18.10
2015,06,29,06,55,18.20
2015,06,29,06,56,18.20
2015,06,29,06,57,18.30
2015,06,29,06,58,18.40
2015,06,29,06,59,18.50
2015,06,29,07,00,18.60
2015,06,29,07,01,18.60
2015,06,29,07,02,18.70
2015,06,29,07,03,18.80
2015,06,29,07,04,18.80
2015,06,29,07,05,18.90
2015,06,29,07,06,19.00
2015,06,29,07,07,19.10
2015,06,29,07,08,19.10
2015,06,29,07,09,19.20
2015,06,29,07,10,19.30
2015,06,29,07,11,19.30
2015,06,29,07,12,19.40
2015,06,29,07,13,19.50
2015,06,29,07,14,19.60
2015,06,29,07,15,19.70
2015,06,29,07,16,19.70
2015,06,29,07,17,19.80
2015,06,29,07,18,19.80
2015,06,29,07,19,19.80
2015,06,29,07,20,19.90
2015,06,29,07,21,19.90
2015,06,29,07,22,19.90
2015,06,29,07,23,19.90
2015,06,29,07,24,20.00
2015,06,29,07,25,20.00
2015,06,29,07,26,20.00
2015,06,29,07,27,20.00
2015,06,29,07,28,20.10
2015,06,29,07,29,20.10
2015,06,29,07,30,20.20
2015,06,29,07,31,20.20
2015,06,29,07,32,20.30
2015,06,29,07,33,20.30
2015,06,29,07,34,20.40
2015,06,29,07,35,20.40
2015,06,29,07,36,20.50
2015,06,29,07,37,20.60
2015,06,29,07,38,20.70
2015,06,29,07,39,20.70
2015,06,29,07,40,20.80
2015,06,29,07,41,20.90
2015,06,29,07,42,21.00
2015,06,29,07,43,21.10
2015,06,29,07,44,21.20
2015,06,29,07,45,21.20
2015,06,29,07,46,21.30
2015,06,29,07,47,21.40
2015,06,29,07,48,21.60
2015,06,29,07,49,21.70
2015,06,29,07,50,21.80
2015,06,29,07,51,21.90
2015,06,29,07,52,22.00
2015,06,29,07,53,22.10
2015,06,29,07,54,22.20
2015,06,29,07,55,22.30
2015,06,29,07,56,22.40
2015,06,29,07,57,22.50
2015,06,29,07,58,22.60
2015,06,29,07,59,22.80
2015,06,29,08,00,22.90
2015,06,29,08,01,22.90
2015,06,29,08,02,23.00
2015,06,29,08,03,23.10
2015,06,29,08,04,23.20
2015,06,29,08,05,23.20
2015,06,29,08,06,23.30
2015,06,29,08,07,23.30
2015,06,29,08,08,23.40
2015,06,29,08,09,23.50
2015,06,29,08,10,23.50
2015,06,29,08,11,23.60
2015,06,29,08,12,23.60
2015,06,29,08,13,23.60
2015,06,29,08,14,23.70
2015,06,29,08,15,23.70
2015,06,29,08,16,23.80
2015,06,29,08,17,23.80
2015,06,29,08,18,23.90
2015,06,29,08,19,23.90
2015,06,29,08,20,24.00
2015,06,29,08,21,24.10
2015,06,29,08,22,24.10
2015,06,29,08,23,24.10
2015,06,29,08,24,24.10
2015,06,29,08,25,24.20
2015,06,29,08,26,24.20
2015,06,29,08,27,24.30
2015,06,29,08,28,24.30
2015,06,29,08,29,24.40
2015,06,29,08,30,24.40
2015,06,29,08,31,24.50
2015,06,29,08,32,24.60
2015,06,29,08,33,24.60
2015,06,29,08,34,24.70
2015,06,29,08,35,24.70
2015,06,29,08,36,24.80
2015,06,29,08,37,24.90
2015,06,29,08,38,24.90
2015,06,29,08,39,25.00
2015,06,29,08,40,25.00
2015,06,29,08,41,25.00
2015,06,29,08,42,24.90
2015,06,29,08,43,24.90
2015,06,29,08,44,24.80
2015,06,29,08,45,24.70
2015,06,29,08,46,24.70
2015,06,29,08,47,24.60
2015,06,29,08,48,24.60
2015,06,29,08,49,24.60
2015,06,29,08,50,24.60
2015,06,29,08,51,24.60
2015,06,29,08,52,24.60
2015,06,29,08,53,24.60
2015,06,29,08,54,24.60
2015,06,29,08,55,24.60
2015,06,29,08,56,24.60
2015,06,29,08,57,24.60
2015,06,29,08,58,24.60
2015,06,29,08,59,24.60
2015,06,29,09,00,24.60
2015,06,29,09,01,24.60
2015,06,29,09,02,24.60
2015,06,29,09,03,24.60
2015,06,29,09,04,24.60
2015,06,29,09,05,24.70
2015,06,29,09,06,24.70
2015,06,29,09,07,24.70
2015,06,29,09,08,24.80
2015,06,29,09,09,24.90
2015,06,29,09,10,24.90
2015,06,29,09,11,24.90
2015,06,29,09,12,24.90
2015,06,29,09,13,24.90
2015,06,29,09,14,24.90
2015,06,29,09,15,24.90
2015,06,29,09,16,25.00
2015,06,29,09,17,25.10
2015,06,29,09,18,25.20
2015,06,29,09,19,25.10
2015,06,29,09,20,25.10
2015,06,29,09,21,25.00
2015,06,29,09,22,25.00
2015,06,29,09,23,24.90
2015,06,29,09,24,24.90
2015,06,29,09,25,24.90
2015,06,29,09,26,24.90
2015,06,29,09,27,24.90
2015,06,29,09,28,24.80
2015,06,29,09,29,24.80
2015,06,29,09,30,24.80
2015,06,29,09,31,24.80
2015,06,29,09,32,24.80
2015,06,29,09,33,24.70
2015,06,29,09,34,24.70
2015,06,29,09,35,24.70
2015,06,29,09,36,24.70
2015,06,29,09,37,24.70
2015,06,29,09,38,24.70
2015,06,29,09,39,24.60
2015,06,29,09,40,24.50
2015,06,29,09,41,24.40
2015,06,29,09,42,24.40
2015,06,29,09,43,24.40
2015,06,29,09,44,24.40
2015,06,29,09,45,24.40
2015,06,29,09,46,24.50
2015,06,29,09,47,24.50
2015,06,29,09,48,24.50
2015,06,29,09,49,24.60
2015,06,29,09,50,24.60
2015,06,29,09,51,24.60
2015,06,29,09,52,24.60
2015,06,29,09,53,24.50
2015,06,29,09,54,24.50
2015,06,29,09,55,24.50
2015,06,29,09,56,24.50
2015,06,29,09,57,24.50
2015,06,29,09,58,24.40
2015,06,29,09,59,24.30
2015,06,29,10,00,24.30
2015,06,29,10,01,24.30
2015,06,29,10,02,24.30
2015,06,29,10,03,24.30
2015,06,29,10,04,24.30
2015,06,29,10,05,24.30
2015,06,29,10,06,24.30
2015,06,29,10,07,24.30
2015,06,29,10,08,24.30
2015,06,29,10,09,24.30
2015,06,29,10,10,24.30
2015,06,29,10,11,24.20
2015,06,29,10,12,24.20
2015,06,29,10,13,24.20
2015,06,29,10,14,24.30
2015,06,29,10,15,24.30
2015,06,29,10,16,24.30
2015,06,29,10,17,24.30
2015,06,29,10,18,24.30
2015,06,29,10,19,24.30
2015,06,29,10,20,24.40
2015,06,29,10,21,24.40
2015,06,29,10,22,24.40
2015,06,29,10,23,24.50
2015,06,29,10,24,24.50
2015,06,29,10,25,24.60
2015,06,29,10,26,24.60
2015,06,29,10,27,24.70
2015,06,29,10,28,24.80
2015,06,29,10,29,24.90
2015,06,29,10,30,24.90
2015,06,29,10,31,25.00
2015,06,29,10,32,25.10
2015,06,29,10,33,25.10
2015,06,29,10,34,25.20
2015,06,29,10,35,25.30
2015,06,29,10,36,25.30
2015,06,29,10,37,25.40
2015,06,29,10,38,25.40
2015,06,29,10,39,25.50
2015,06,29,10,40,25.40
2015,06,29,10,41,25.40
2015,06,29,10,42,25.40
2015,06,29,10,43,25.40
2015,06,29,10,44,25.50
2015,06,29,10,45,25.50
2015,06,29,10,46,25.50
2015,06,29,10,47,25.60
2015,06,29,10,48,25.70
2015,06,29,10,49,25.80
2015,06,29,10,50,25.90
2015,06,29,10,51,26.00
2015,06,29,10,52,26.10
2015,06,29,10,53,26.20
2015,06,29,10,54,26.40
2015,06,29,10,55,26.60
2015,06,29,10,56,26.70
2015,06,29,10,57,26.80
2015,06,29,10,58,26.80
2015,06,29,10,59,26.80
2015,06,29,11,00,26.90
2015,06,29,11,01,26.90
2015,06,29,11,02,26.90
2015,06,29,11,03,26.90
2015,06,29,11,04,26.80
2015,06,29,11,05,26.70
2015,06,29,11,06,26.60
2015,06,29,11,07,26.50
2015,06,29,11,08,26.50
2015,06,29,11,09,26.40
2015,06,29,11,10,26.30
2015,06,29,11,11,26.40
2015,06,29,11,12,26.40
2015,06,29,11,13,26.40
2015,06,29,11,14,26.50
2015,06,29,11,15,26.40
2015,06,29,11,16,26.40
2015,06,29,11,17,26.40
2015,06,29,11,18,26.50
2015,06,29,11,19,26.60
2015,06,29,11,20,26.70
2015,06,29,11,21,26.90
2015,06,29,11,22,26.90
2015,06,29,11,23,26.90
2015,06,29,11,24,27.00
2015,06,29,11,25,27.10
2015,06,29,11,26,27.10
2015,06,29,11,27,27.10
2015,06,29,11,28,27.10
2015,06,29,11,29,27.10
2015,06,29,11,30,27.10
2015,06,29,11,31,27.10
2015,06,29,11,32,27.10
2015,06,29,11,33,27.10
2015,06,29,11,34,27.20
2015,06,29,11,35,27.20
2015,06,29,11,36,27.20
2015,06,29,11,37,27.20
2015,06,29,11,38,27.20
2015,06,29,11,39,27.20
2015,06,29,11,40,27.10
2015,06,29,11,41,27.00
2015,06,29,11,42,27.00
2015,06,29,11,43,26.90
2015,06,29,11,44,26.90
2015,06,29,11,45,26.90
2015,06,29,11,46,26.90
2015,06,29,11,47,26.80
2015,06,29,11,48,26.80
2015,06,29,11,49,26.70
2015,06,29,11,50,26.70
2015,06,29,11,51,26.70
2015,06,29,11,52,26.50
2015,06,29,11,53,26.50
2015,06,29,11,54,26.50
2015,06,29,11,55,26.60
2015,06,29,11,56,26.60
2015,06,29,11,57,26.70
2015,06,29,11,58,26.70
2015,06,29,11,59,26.80
2015,06,29,12,00,26.80
2015,06,29,12,01,26.90
2015,06,29,12,02,27.10
2015,06,29,12,03,27.20
2015,06,29,12,04,27.30
2015,06,29,12,05,27.40
2015,06,29,12,06,27.60
2015,06,29,12,07,27.60
2015,06,29,12,08,27.70
2015,06,29,12,09,27.80
2015,06,29,12,10,27.80
2015,06,29,12,11,27.70
2015,06,29,12,12,27.50
2015,06,29,12,13,27.40
2015,06,29,12,14,27.30
2015,06,29,12,15,27.20
2015,06,29,12,16,27.30
2015,06,29,12,17,27.20
2015,06,29,12,18,27.20
2015,06,29,12,19,27.20
2015,06,29,12,20,27.10
2015,06,29,12,21,27.10
2015,06,29,12,22,27.10
2015,06,29,12,23,27.10
2015,06,29,12,24,27.10
2015,06,29,12,25,27.10
2015,06,29,12,26,27.10
2015,06,29,12,27,27.10
2015,06,29,12,28,27.20
2015,06,29,12,29,27.10
2015,06,29,12,30,27.00
2015,06,29,12,31,27.00
2015,06,29,12,32,26.90
2015,06,29,12,33,26.80
2015,06,29,12,34,26.60
2015,06,29,12,35,26.60
2015,06,29,12,36,26.60
2015,06,29,12,37,26.60
2015,06,29,12,38,26.60
2015,06,29,12,39,26.50
2015,06,29,12,40,26.50
2015,06,29,12,41,26.40
2015,06,29,12,42,26.30
2015,06,29,12,43,26.30
2015,06,29,12,44,26.40
2015,06,29,12,45,26.40
2015,06,29,12,46,26.50
2015,06,29,12,47,26.60
2015,06,29,12,48,26.70
2015,06,29,12,49,26.70
2015,06,29,12,50,26.80
2015,06,29,12,51,26.70
2015,06,29,12,52,26.70
2015,06,29,12,53,26.50
2015,06,29,12,54,26.50
2015,06,29,12,55,26.40
2015,06,29,12,56,26.40
2015,06,29,12,57,26.40
2015,06,29,12,58,26.50
2015,06,29,12,59,26.40
2015,06,29,13,00,26.40
2015,06,29,13,01,26.50
2015,06,29,13,02,26.50
2015,06,29,13,03,26.50
2015,06,29,13,04,26.50
2015,06,29,13,05,26.60
2015,06,29,13,06,26.60
2015,06,29,13,07,26.70
2015,06,29,13,08,26.80
2015,06,29,13,09,26.80
2015,06,29,13,10,26.80
2015,06,29,13,11,26.90
2015,06,29,13,12,26.90
2015,06,29,13,13,27.00
2015,06,29,13,14,27.00
2015,06,29,13,15,26.90
2015,06,29,13,16,26.90
2015,06,29,13,17,26.90
2015,06,29,13,18,26.80
2015,06,29,13,19,26.80
2015,06,29,13,20,26.70
2015,06,29,13,21,26.70
2015,06,29,13,22,26.70
2015,06,29,13,23,26.80
2015,06,29,13,24,26.80
2015,06,29,13,25,26.80
2015,06,29,13,26,26.70
2015,06,29,13,27,26.70
2015,06,29,13,28,26.70
2015,06,29,13,29,26.80
2015,06,29,13,30,26.80
2015,06,29,13,31,26.80
2015,06,29,13,32,26.90
2015,06,29,13,33,27.00
2015,06,29,13,34,27.00
2015,06,29,13,35,27.00
2015,06,29,13,36,27.00
2015,06,29,13,37,26.90
2015,06,29,13,38,26.90
2015,06,29,13,39,26.80
2015,06,29,13,40,26.80
2015,06,29,13,41,26.80
2015,06,29,13,42,26.80
2015,06,29,13,43,27.00
2015,06,29,13,44,27.10
2015,06,29,13,45,27.20
2015,06,29,13,46,27.30
2015,06,29,13,47,27.40
2015,06,29,13,48,27.40
2015,06,29,13,49,27.30
2015,06,29,13,50,27.20
2015,06,29,13,51,27.20
2015,06,29,13,52,27.10
2015,06,29,13,53,27.10
2015,06,29,13,54,27.20
2015,06,29,13,55,27.20
2015,06,29,13,56,27.20
2015,06,29,13,57,27.30
2015,06,29,13,58,27.40
2015,06,29,13,59,27.50
2015,06,29,14,00,27.60
2015,06,29,14,01,27.80
2015,06,29,14,02,27.90
2015,06,29,14,03,28.00
2015,06,29,14,04,28.10
2015,06,29,14,05,28.10
2015,06,29,14,06,28.10
2015,06,29,14,07,28.20
2015,06,29,14,08,28.20
2015,06,29,14,09,28.20
2015,06,29,14,10,28.30
2015,06,29,14,11,28.30
2015,06,29,14,12,28.20
2015,06,29,14,13,28.20
2015,06,29,14,14,28.10
2015,06,29,14,15,28.00
2015,06,29,14,16,27.90
2015,06,29,14,17,27.80
2015,06,29,14,18,27.70
2015,06,29,14,19,27.70
2015,06,29,14,20,27.70
2015,06,29,14,21,27.70
2015,06,29,14,22,27.60
2015,06,29,14,23,27.50
2015,06,29,14,24,27.50
2015,06,29,14,25,27.50
2015,06,29,14,26,27.40
2015,06,29,14,27,27.40
2015,06,29,14,28,27.40
2015,06,29,14,29,27.40
2015,06,29,14,30,27.50
2015,06,29,14,31,27.60
2015,06,29,14,32,27.80
2015,06,29,14,33,27.90
2015,06,29,14,34,28.00
2015,06,29,14,35,28.10
2015,06,29,14,36,28.20
2015,06,29,14,37,28.30
2015,06,29,14,38,28.20
2015,06,29,14,39,28.00
2015,06,29,14,40,27.90
2015,06,29,14,41,27.90
2015,06,29,14,42,28.00
2015,06,29,14,43,28.10
2015,06,29,14,44,28.10
2015,06,29,14,45,28.20
2015,06,29,14,46,28.30
2015,06,29,14,47,28.30
2015,06,29,14,48,28.40
2015,06,29,14,49,28.40
2015,06,29,14,50,28.40
2015,06,29,14,51,28.50
2015,06,29,14,52,28.50
2015,06,29,14,53,28.40
2015,06,29,14,54,28.30
2015,06,29,14,55,28.30
2015,06,29,14,56,28.30
2015,06,29,14,57,28.40
2015,06,29,14,58,28.40
2015,06,29,14,59,28.50
2015,06,29,15,00,28.60
2015,06,29,15,01,28.60
2015,06,29,15,02,28.50
2015,06,29,15,03,28.50
2015,06,29,15,04,28.50
2015,06,29,15,05,28.40
2015,06,29,15,06,28.30
2015,06,29,15,07,28.20
2015,06,29,15,08,28.10
2015,06,29,15,09,28.10
2015,06,29,15,10,28.10
2015,06,29,15,11,28.10
2015,06,29,15,12,28.10
2015,06,29,15,13,28.10
2015,06,29,15,14,28.20
2015,06,29,15,15,28.20
2015,06,29,15,16,28.20
2015,06,29,15,17,28.20
2015,06,29,15,18,28.20
2015,06,29,15,19,28.20
2015,06,29,15,20,28.10
2015,06,29,15,21,28.00
2015,06,29,15,22,28.00
2015,06,29,15,23,27.90
2015,06,29,15,24,27.90
2015,06,29,15,25,27.80
2015,06,29,15,26,27.60
2015,06,29,15,27,27.40
2015,06,29,15,28,27.30
2015,06,29,15,29,27.30
2015,06,29,15,30,27.20
2015,06,29,15,31,27.20
2015,06,29,15,32,27.20
2015,06,29,15,33,27.20
2015,06,29,15,34,27.30
2015,06,29,15,35,27.40
2015,06,29,15,36,27.50
2015,06,29,15,37,27.50
2015,06,29,15,38,27.60
2015,06,29,15,39,27.80
2015,06,29,15,40,27.90
2015,06,29,15,41,28.10
2015,06,29,15,42,28.20
2015,06,29,15,43,28.20
2015,06,29,15,44,28.30
2015,06,29,15,45,28.40
2015,06,29,15,46,28.40
2015,06,29,15,47,28.40
2015,06,29,15,48,28.40
2015,06,29,15,49,28.40
2015,06,29,15,50,28.40
2015,06,29,15,51,28.40
2015,06,29,15,52,28.30
2015,06,29,15,53,28.30
2015,06,29,15,54,28.30
2015,06,29,15,55,28.30
2015,06,29,15,56,28.40
2015,06,29,15,57,28.50
2015,06,29,15,58,28.70
2015,06,29,15,59,28.80
2015,06,29,16,00,28.90
2015,06,29,16,01,29.10
2015,06,29,16,02,29.20
2015,06,29,16,03,29.20
2015,06,29,16,04,29.20
2015,06,29,16,05,29.20
2015,06,29,16,06,29.20
2015,06,29,16,07,29.20
2015,06,29,16,08,29.20
2015,06,29,16,09,29.20
2015,06,29,16,10,29.10
2015,06,29,16,11,29.10
2015,06,29,16,12,29.10
2015,06,29,16,13,29.20
2015,06,29,16,14,29.20
2015,06,29,16,15,29.30
2015,06,29,16,16,29.40
2015,06,29,16,17,29.50
2015,06,29,16,18,29.60
2015,06,29,16,19,29.70
2015,06,29,16,20,29.90
2015,06,29,16,21,30.00
2015,06,29,16,22,30.00
2015,06,29,16,23,29.90
2015,06,29,16,24,29.90
2015,06,29,16,25,29.90
2015,06,29,16,26,29.90
2015,06,29,16,27,29.90
2015,06,29,16,28,29.90
2015,06,29,16,29,29.80
2015,06,29,16,30,29.90
2015,06,29,16,31,29.80
2015,06,29,16,32,29.90
2015,06,29,16,33,29.90
2015,06,29,16,34,29.90
2015,06,29,16,35,29.80
2015,06,29,16,36,29.80
2015,06,29,16,37,29.80
2015,06,29,16,38,29.90
2015,06,29,16,39,30.00
2015,06,29,16,40,30.10
2015,06,29,16,41,30.20
2015,06,29,16,42,30.10
2015,06,29,16,43,30.00
2015,06,29,16,44,29.80
2015,06,29,16,45,29.80
2015,06,29,16,46,29.70
2015,06,29,16,47,29.50
2015,06,29,16,48,29.50
2015,06,29,16,49,29.50
2015,06,29,16,50,29.60
2015,06,29,16,51,29.60
2015,06,29,16,52,29.70
2015,06,29,16,53,29.70
2015,06,29,16,54,29.80
2015,06,29,16,55,29.70
2015,06,29,16,56,29.60
2015,06,29,16,57,29.50
2015,06,29,16,58,29.50
2015,06,29,16,59,29.40
2015,06,29,17,00,29.40
2015,06,29,17,01,29.50
2015,06,29,17,02,29.50
2015,06,29,17,03,29.60
2015,06,29,17,04,29.70
2015,06,29,17,05,29.80
2015,06,29,17,06,29.80
2015,06,29,17,07,29.80
2015,06,29,17,08,29.90
2015,06,29,17,09,29.90
2015,06,29,17,10,29.90
2015,06,29,17,11,29.90
2015,06,29,17,12,29.90
2015,06,29,17,13,29.90
2015,06,29,17,14,29.90
2015,06,29,17,15,29.90
2015,06,29,17,16,29.90
2015,06,29,17,17,29.90
2015,06,29,17,18,29.80
2015,06,29,17,19,29.80